Weather reports worldwide

Advertisment
Grosseto, Italy (16206): temperature & dewpoint: 18.01.2019 00:00:00 - 24.01.2019 00:00:00 (CET)Grosseto, Italy (16206): wind speed: 18.01.2019 00:00:00 - 24.01.2019 00:00:00 (CET)Grosseto, Italy (16206): wind direction: 18.01.2019 00:00:00 - 24.01.2019 00:00:00 (CET)Grosseto, Italy (16206): reduced air pressure: 18.01.2019 00:00:00 - 24.01.2019 00:00:00 (CET)Grosseto, Italy (16206): visibility: 18.01.2019 00:00:00 - 24.01.2019 00:00:00 (CET)
Date & Time tt [°C] td [°C] ff [km/h] ff [kn] dd ppp [hPa] vv [km]
24.01.2019 00:00:00 5,4 2,9 11 6 ENE 990,9 12
23.01.2019 23:00:00 5,4 2,9 15 8 E 990,9 12
23.01.2019 22:00:00 2,6 1,1 4 2 NNE 990,9 12
23.01.2019 21:00:00 2,6 1,0 4 2 N 990,9 10
23.01.2019 20:00:00 4,0 1,5 5 3 N 990,9 10
23.01.2019 19:00:00 5,0 3,0 9 5 NE 991,1 8
23.01.2019 18:00:00 6,0 4,0 8 4 E 991,5 6
23.01.2019 17:00:00 5,6 3,4 11 6 E 990,9 5
23.01.2019 16:00:00 6,2 4,0 13 7 E 992,5 5
23.01.2019 15:00:00 6,8 4,0 21 11 ESE 993,1 5
23.01.2019 14:00:00 6,6 4,1 16 9 E 993,8 8
23.01.2019 13:00:00 7,0 3,4 24 13 SE 995,0 15
23.01.2019 12:00:00 8,2 2,7 22 12 ESE 995,8 20
23.01.2019 11:00:00 6,4 3,6 15 8 ESE 997,0 20
23.01.2019 10:00:00 4,8 2,5 8 4 NNE 997,9 15
23.01.2019 09:00:00 0,4 -1,2 8 4 N 998,7 4,0
23.01.2019 08:00:00 0,4 -1,2 8 4 N 999,2 2,0
23.01.2019 07:00:00 1,6 0,1 5 3 ENE 999,8 7
23.01.2019 06:00:00 1,8 0,5 8 4 N 1000,1 7
23.01.2019 05:00:00 1,8 0,3 4 2 NE 1000,6 7
23.01.2019 04:00:00 1,8 0,5 5 3 N 1001,1 7
23.01.2019 03:00:00 1,8 0,2 8 4 NNE 1001,9 7
23.01.2019 02:00:00 1,8 0,2 4 2 N 1002,2 7
23.01.2019 01:00:00 1,8 0,2 8 4 ENE 1002,7 6
23.01.2019 00:00:00 2,6 0,3 4 2 E 1003,2 7
22.01.2019 23:00:00 2,4 0,5 9 5 E 1003,7 7
22.01.2019 22:00:00 2,4 0,5 4 2 NNE 1003,8 6
22.01.2019 21:00:00 2,6 0,7 11 6 ENE 1003,9 12
22.01.2019 20:00:00 2,6 0,7 15 8 ENE 1004,1 12
22.01.2019 19:00:00 2,6 0,7 9 5 NE 1004,2 12
22.01.2019 18:00:00 3,4 1,9 11 6 E 1004,6 9
22.01.2019 17:00:00 3,8 2,0 5 3 NNE 1004,9 9
22.01.2019 16:00:00 4,0 2,0 9 5 N 1005,2 9
22.01.2019 15:00:00 4,0 1,9 15 8 N 1005,4 9
22.01.2019 14:00:00 4,4 1,8 11 6 NNW 1005,9 9
22.01.2019 13:00:00 4,4 1,8 13 7 N 1006,8 9
22.01.2019 12:00:00 4,6 1,8 15 8 N 1007,2 9
22.01.2019 11:00:00 4,4 1,8 16 9 N 1007,2 9
22.01.2019 10:00:00 4,0 1,5 21 11 N 1007,3 5
22.01.2019 09:00:00 4,0 0,7 21 11 NNE 1007,4 5
22.01.2019 08:00:00 4,0 0,5 18 10 N 1007,4 7
22.01.2019 07:00:00 4,8 0,6 24 13 NNE 1007,2 10
22.01.2019 06:00:00 4,0 1,5 22 12 WSW 1007,7 7
22.01.2019 05:00:00 4,0 1,5 21 11 N 1009,9 7
22.01.2019 04:00:00 4,0 2,0 18 10 N 1009,9 7
22.01.2019 03:00:00 4,0 2,2 21 11 NNW 1010,7 7
22.01.2019 02:00:00 4,0 2,0 16 9 NNE 1010,8 7
22.01.2019 01:00:00 4,0 2,0 15 8 N 1011,6 6
22.01.2019 00:00:00 4,2 2,2 16 9 N 1011,8 6
21.01.2019 23:00:00 4,6 2,6 16 9 NNE 1011,8 7
21.01.2019 22:00:00 4,8 2,7 22 12 NNE 1011,8 7
21.01.2019 21:00:00 5,2 3,0 22 12 NE 1011,9 6
21.01.2019 20:00:00 5,4 3,2 22 12 NE 1011,9 6
21.01.2019 19:00:00 5,4 3,4 18 10 NNE 1011,9 7
21.01.2019 18:00:00 6,4 4,4 13 7 N 1012,0 7
21.01.2019 17:00:00 6,4 4,4 15 8 N 1012,0 7
21.01.2019 16:00:00 6,8 4,6 15 8 NE 1012,1 7
21.01.2019 15:00:00 7,4 3,6 15 8 NE 1012,1 9
21.01.2019 14:00:00 8,6 2,0 18 10 NE 1012,2 30
21.01.2019 13:00:00 9,0 3,4 18 10 NNE 1012,7 50
21.01.2019 12:00:00 9,0 3,2 18 10 NNE 1013,2 50
21.01.2019 11:00:00 8,4 3,2 16 9 NE 1013,4 10
21.01.2019 10:00:00 6,8 3,2 5 3 ENE 1013,2 50
21.01.2019 09:00:00 4,6 1,6 4 2 N 1012,0 10
21.01.2019 08:00:00 5,0 1,3 9 5 N 1012,0 40
21.01.2019 07:00:00 5,0 1,7 9 5 N 1011,9 20
21.01.2019 06:00:00 4,0 1,4 15 8 N 1011,9 15
21.01.2019 05:00:00 4,0 1,4 11 6 NNE 1011,9 15
21.01.2019 04:00:00 4,2 1,7 11 6 N 1012,4 15
21.01.2019 03:00:00 4,4 1,8 4 2 N 1012,7 15
21.01.2019 02:00:00 4,4 2,3 5 3 NNW 1012,6 15
21.01.2019 01:00:00 4,4 2,6 5 3 NNW 1012,7 15
21.01.2019 00:00:00 4,8 3,0 5 3 NNE 1012,7 15
20.01.2019 23:00:00 4,2 3,0 5 3 NNE 1012,6 15
20.01.2019 22:00:00 5,0 3,2 5 3 N 1012,6 15
20.01.2019 21:00:00 5,2 3,4 8 4 NNW 1012,0 10
20.01.2019 20:00:00 5,8 4,1 8 4 NNE 1011,9 10
20.01.2019 19:00:00 5,8 4,1 8 4 NNE 1011,8 10
20.01.2019 18:00:00 7,4 5,0 2 1 NNW 1011,7 10
20.01.2019 17:00:00 9,0 5,9 4 2 SE 1011,6 20
20.01.2019 16:00:00 10,0 6,4 5 3 S 1011,7 20
20.01.2019 15:00:00 10,2 4,6 4 2 SSE 1011,7 15
20.01.2019 14:00:00 10,2 5,0 4 2 E 1011,9 15
20.01.2019 13:00:00 9,8 5,0 8 4 ENE 1012,1 20
20.01.2019 12:00:00 8,6 5,4 8 4 NNE 1012,8 15
20.01.2019 11:00:00 6,8 4,3 9 5 NNE 1013,8 20
20.01.2019 10:00:00 4,8 2,5 9 5 N 1013,6 15
20.01.2019 09:00:00 4,4 2,3 11 6 NE 1012,3 8
20.01.2019 08:00:00 4,2 1,9 5 3 N 1012,0 7
20.01.2019 07:00:00 5,0 2,9 11 6 E 1011,8 10
20.01.2019 06:00:00 6,0 3,3 8 4 ENE 1011,8 8
20.01.2019 05:00:00 5,0 2,4 8 4 ENE 1011,8 10
20.01.2019 04:00:00 4,8 2,5 8 4 NE 1012,0 10
20.01.2019 03:00:00 4,2 1,9 9 5 NE 1012,6 10
20.01.2019 02:00:00 4,0 1,9 11 6 N 1012,5 10
20.01.2019 01:00:00 4,0 1,7 8 4 NNE 1012,8 10
20.01.2019 00:00:00 4,2 1,9 8 4 NNE 1013,0 10
19.01.2019 23:00:00 4,0 1,4 8 4 N 1012,9 10
19.01.2019 22:00:00 2,6 1,1 9 5 NE 1012,8 10
19.01.2019 21:00:00 3,2 1,4 4 2 N 1012,7 30
19.01.2019 20:00:00 4,8 2,7 5 3 SE 1012,7 30
19.01.2019 19:00:00 6,4 4,1 8 4 N 1012,3 20
19.01.2019 18:00:00 7,2 3,2 9 5 NNE 1012,1 30
19.01.2019 17:00:00 9,8 4,2 2 1 S 1012,1 10
19.01.2019 16:00:00 10,4 3,2 9 5 SE 1012,3 30
19.01.2019 15:00:00 11,4 3,2 4 2 N 1012,4 30
19.01.2019 14:00:00 11,4 3,4 8 4 NNE 1012,5 40
19.01.2019 13:00:00 10,4 3,7 9 5 ENE 1012,9 40
19.01.2019 12:00:00 8,8 4,8 8 4 N 1013,5 10
19.01.2019 11:00:00 6,8 4,0 5 3 N 1013,4 30
19.01.2019 10:00:00 4,8 2,8 5 3 NNW 1013,1 20
19.01.2019 09:00:00 2,8 1,3 11 6 NNE 1012,9 15
19.01.2019 08:00:00 1,0 -0,2 8 4 NNE 1012,7 15
19.01.2019 07:00:00 3,6 1,2 9 5 NE 1012,3 12
19.01.2019 06:00:00 3,2 0,6 9 5 NNE 1012,4 12
19.01.2019 05:00:00 4,0 1,4 8 4 NE 1012,7 12
19.01.2019 04:00:00 3,8 1,2 8 4 NE 1012,9 12
19.01.2019 03:00:00 3,8 0,8 9 5 NNE 1012,9 12
19.01.2019 02:00:00 3,0 0,1 8 4 NNE 1012,9 12
19.01.2019 01:00:00 3,8 0,8 11 6 NNE 1012,9 12
19.01.2019 00:00:00 3,8 0,5 11 6 NNE 1012,9 12
18.01.2019 23:00:00 3,0 0,9 8 4 ENE 1012,5 12
18.01.2019 22:00:00 2,2 0,4 9 5 N 1012,1 12
18.01.2019 21:00:00 2,4 0,5 9 5 N 1012,0 10
18.01.2019 20:00:00 4,0 1,4 5 3 NE 1011,7 15
18.01.2019 19:00:00 5,4 2,2 8 4 ENE 1011,1 10
18.01.2019 18:00:00 8,0 2,9 9 5 N 1010,9 15
18.01.2019 17:00:00 11,0 3,1 8 4 N 1010,8 25
18.01.2019 16:00:00 13,2 3,8 5 3 WNW 1010,5 25
18.01.2019 15:00:00 13,8 3,6 11 6 NNW 1010,1 25
18.01.2019 14:00:00 14,2 4,2 11 6 N 1010,1 25
18.01.2019 13:00:00 13,4 5,8 13 7 NW 1010,6 30
18.01.2019 12:00:00 12,4 9,0 13 7 N 1010,8 25
18.01.2019 11:00:00 9,8 7,4 11 6 NNW 1010,6 15
18.01.2019 10:00:00 7,6 5,2 8 4 N 1009,9 10
18.01.2019 09:00:00 6,8 4,3 9 5 N 1009,9 10
18.01.2019 08:00:00 8,2 5,7 9 5 SE 1009,5 10
18.01.2019 07:00:00 6,2 4,0 11 6 SE 1009,3 8
18.01.2019 06:00:00 4,8 2,8 5 3 N 1009,7 7
18.01.2019 05:00:00 4,8 2,8 8 4 SE 1010,1 6
18.01.2019 04:00:00 4,8 2,8 9 5 ESE 1010,2 6
18.01.2019 03:00:00 4,0 2,0 5 3 N 1011,2 6
18.01.2019 02:00:00 4,4 2,3 5 3 NE 1011,4 6
18.01.2019 01:00:00 4,6 2,6 8 4 NE 1011,8 4,5
18.01.2019 00:00:00 6,0 4,2 5 3 NNW 1012,2 5

tt = temperature
td = dewpoint
ff = wind speed
dd = wind direction
ppp = reduced air pressure
vv = visibility

Next stations